CW0608 Weather Reports


Display with metric or nautical units.
time (UTC)temp
F
wind
direction
speed
MPH
gust
MPH
rain 1hr
in
rain 24hr
in
rain mn
in
humidity
%
barometer
mb
20260904101805 70 254 1.0 2.0 0.00 0.20 0.01 97 1014.2
20260904100804 70 254 1.0 3.0 0.00 0.20 0.01 97 1014.4
20260904095306 70 272 3.0 5.0 0.00 0.21 0.01 97 1014.7
20260904094305 70 265 2.0 3.0 0.00 0.21 0.01 97 1014.0
20260904092805 70 332 1.0 3.0 0.00 0.21 0.01 97 1013.9
20260904091305 70 332 1.0 2.0 0.00 0.21 0.01 97 1014.0
20260904090306 70 332 0.0 2.0 0.00 0.21 0.01 97 1014.2
20260904083306 71 332 0.0 2.0 0.00 0.21 0.01 97 1014.3
20260904082805 71 332 0.0 3.0 0.00 0.21 0.01 97 1014.1
20260904082306 71 332 1.0 3.0 0.00 0.21 0.01 97 1014.4
20260904081805 71 307 2.0 3.0 0.00 0.21 0.01 97 1014.5
20260904081307 71 201 0.0 1.0 0.00 0.21 0.01 97 1014.2
20260904074805 71 201 1.0 3.0 0.00 0.21 0.01 97 1014.1
20260904073806 71 201 0.0 2.0 0.00 0.21 0.01 97 1014.3
20260904072805 71 201 0.0 1.0 0.00 0.21 0.01 97 1014.2
20260904071806 71 201 1.0 3.0 0.00 0.21 0.01 97 1014.2
20260904064805 71 203 0.0 0.0 0.00 0.21 0.01 97 1013.9
20260904063805 71 203 0.0 1.0 0.00 0.21 0.01 96 1013.7
20260904062805 71 203 1.0 2.0 0.00 0.21 0.01 96 1013.6
20260904062306 71 203 0.0 2.0 0.00 0.21 0.01 96 1013.7
20260904061305 71 203 1.0 2.0 0.00 0.21 0.01 96 1013.5
20260904060305 71 202 1.0 2.0 0.00 0.21 0.01 95 1013.6
20260904054805 72 217 1.0 3.0 0.00 0.21 0.01 95 1013.5
20260904053806 72 242 1.0 3.0 0.00 0.21 0.01 95 1013.8
20260904053305 73 242 1.0 3.0 0.00 0.21 0.01 94 1014.0
20260904052805 73 202 1.0 3.0 0.00 0.21 0.01 95 1013.8
20260904052307 73 231 2.0 9.0 0.01 0.21 0.01 95 1013.7
20260904051805 73 188 2.0 9.0 0.01 0.21 0.01 95 1013.8
20260904051306 73 146 4.0 7.0 0.01 0.21 0.01 95 1013.9
20260904045804 74 304 0.0 6.0 0.02 0.21 0.01 95 1013.6
20260904044805 74 278 2.0 7.0 0.02 0.21 0.01 94 1013.2
20260904043804 75 323 3.0 12.0 0.03 0.21 0.01 94 1013.5
20260904035306 75 256 3.0 7.0 0.11 0.26 0.26 97 1014.2
20260904034804 75 283 2.0 6.0 0.10 0.25 0.25 97 1014.0
20260904033805 74 302 0.0 9.0 0.10 0.25 0.25 96 1013.9
20260904032805 75 317 3.0 20.0 0.09 0.24 0.24 95 1015.1
20260904032306 76 247 7.0 20.0 0.03 0.18 0.18 97 1015.2
20260904031305 76 251 1.0 3.0 0.00 0.15 0.15 97 1015.0
20260904030806 76 190 0.0 1.0 0.00 0.15 0.15 97 1014.9
20260904030305 76 190 0.0 1.0 0.00 0.15 0.15 97 1014.8
20260904024804 76 190 0.0 1.0 0.00 0.15 0.15 97 1014.6
20260904023805 76 190 0.0 1.0 0.00 0.15 0.15 97 1014.9
20260904022805 76 190 0.0 1.0 0.00 0.15 0.15 97 1014.9
20260904022306 76 190 0.0 0.0 0.00 0.15 0.15 97 1014.7
20260904021805 76 190 0.0 0.0 0.00 0.15 0.15 97 1014.5
20260904020806 76 190 0.0 0.0 0.00 0.15 0.15 97 1014.8
20260904020305 76 190 0.0 0.0 0.00 0.15 0.15 97 1014.8
20260904015806 76 190 0.0 0.0 0.00 0.15 0.15 97 1014.8
20260904014804 77 190 0.0 0.0 0.00 0.15 0.15 97 1014.5
20260904013805 76 190 0.0 0.0 0.00 0.15 0.15 97 1014.3
20260904012306 76 190 0.0 0.0 0.00 0.15 0.15 96 1014.4
20260904011805 77 190 0.0 0.0 0.00 0.15 0.15 96 1014.3
20260904010805 77 190 0.0 1.0 0.00 0.15 0.15 96 1014.5
20260904010304 77 190 0.0 1.0 0.00 0.15 0.15 96 1014.7
20260904005804 77 190 0.0 1.0 0.00 0.15 0.15 96 1014.8
20260904003805 77 190 0.0 0.0 0.00 0.15 0.15 95 1014.9
20260904003304 78 190 0.0 0.0 0.00 0.15 0.15 95 1014.9
20260904001805 78 190 0.0 0.0 0.00 0.15 0.15 94 1015.1
20260904001304 78 190 0.0 0.0 0.00 0.15 0.15 94 1015.1
20260904000305 78 190 0.0 0.0 0.00 0.15 0.15 94 1014.9
20260903235806 78 190 0.0 0.0 0.00 0.15 0.15 94 1014.9
20260903235305 78 190 0.0 0.0 0.00 0.15 0.15 93 1014.8
20260903234805 78 190 0.0 0.0 0.00 0.15 0.15 92 1014.6
20260903234305 79 190 0.0 0.0 0.00 0.15 0.15 91 1014.5
20260903233804 79 190 0.0 0.0 0.00 0.15 0.15 91 1014.4
20260903232804 80 190 0.0 1.0 0.00 0.15 0.15 89 1014.5
20260903232306 80 190 0.0 1.0 0.00 0.15 0.15 90 1014.4
20260903231805 80 190 0.0 1.0 0.00 0.15 0.15 89 1014.3
20260903231305 80 190 0.0 1.0 0.00 0.15 0.15 88 1014.3
20260903225306 82 190 0.0 2.0 0.00 0.15 0.15 85 1014.4
20260903224804 82 190 0.0 2.0 0.00 0.15 0.15 84 1014.3
20260903224305 83 190 0.0 5.0 0.00 0.15 0.15 83 1014.1
20260903223805 83 189 0.0 5.0 0.00 0.15 0.15 81 1014.4
20260903223304 83 227 1.0 3.0 0.00 0.15 0.15 82 1014.3
20260903222805 84 218 0.0 3.0 0.00 0.15 0.15 80 1014.3
20260903221805 85 238 0.0 3.0 0.00 0.15 0.15 76 1014.0
20260903220805 86 236 1.0 7.0 0.00 0.15 0.15 74 1014.2
20260903213806 86 206 1.0 8.0 0.00 0.15 0.15 73 1014.4
20260903213305 85 267 1.0 8.0 0.00 0.15 0.15 74 1014.3
20260903211305 85 271 2.0 3.0 0.00 0.15 0.15 72 1014.3
20260903210805 86 247 1.0 6.0 0.00 0.15 0.15 73 1014.3
20260903210305 86 247 3.0 8.0 0.00 0.15 0.15 70 1014.4
20260903205805 86 249 3.0 8.0 0.00 0.15 0.15 70 1014.4
20260903204805 86 206 3.0 10.0 0.00 0.15 0.15 68 1014.4
20260903203804 86 268 3.0 8.0 0.00 0.15 0.15 68 1014.5
20260903203304 87 212 3.0 8.0 0.00 0.15 0.15 69 1014.6
20260903202806 86 231 2.0 8.0 0.00 0.15 0.15 70 1014.7
20260903202306 87 164 2.0 6.0 0.00 0.15 0.15 70 1014.7
20260903201304 86 209 3.0 12.0 0.00 0.15 0.15 71 1014.9
20260903195306 86 252 2.0 12.0 0.00 0.15 0.15 73 1014.9
20260903194304 86 220 3.0 8.0 0.00 0.15 0.15 72 1015.2
20260903193304 85 196 1.0 9.0 0.00 0.15 0.15 75 1015.4
20260903192806 85 212 3.0 9.0 0.00 0.15 0.15 73 1015.4
20260903192306 85 195 3.0 8.0 0.00 0.15 0.15 76 1015.6
20260903190305 83 249 3.0 9.0 0.00 0.15 0.15 78 1015.8
20260903185804 82 227 2.0 6.0 0.00 0.15 0.15 78 1015.7
20260903185306 83 188 3.0 8.0 0.00 0.15 0.15 78 1015.6
20260903184805 83 242 1.0 8.0 0.00 0.16 0.15 80 1015.6
20260903184304 82 208 2.0 8.0 0.00 0.16 0.15 78 1015.6
20260903183804 82 257 1.0 6.0 0.00 0.16 0.15 83 1015.7
20260903182804 81 231 1.0 6.0 0.00 0.17 0.15 80 1015.7
20260903182306 81 265 1.0 6.0 0.00 0.18 0.15 83 1015.7
20260903181804 81 236 0.0 9.0 0.00 0.18 0.15 83 1015.8
20260903181304 82 252 2.0 9.0 0.00 0.19 0.15 81 1015.8
20260903180806 83 209 3.0 12.0 0.00 0.19 0.15 81 1015.9
20260903174804 82 260 3.0 12.0 0.00 0.22 0.15 83 1016.2
20260903172804 82 248 4.0 9.0 0.00 0.22 0.15 87 1016.6
20260903171305 80 207 5.0 12.0 0.02 0.23 0.15 90 1016.6
20260903170305 78 205 2.0 6.0 0.04 0.46 0.15 94 1016.5
20260903165806 78 209 0.0 3.0 0.05 0.48 0.15 94 1016.3
20260903165306 77 209 1.0 5.0 0.05 0.48 0.15 94 1016.2
20260903164805 77 192 2.0 5.0 0.05 0.48 0.15 95 1016.3
20260903164306 77 203 2.0 3.0 0.05 0.48 0.15 96 1016.3
20260903163304 77 26 1.0 5.0 0.05 0.48 0.15 98 1016.4
20260903162306 76 137 2.0 6.0 0.05 0.48 0.15 96 1016.6
20260903160806 76 221 0.0 3.0 0.01 0.44 0.11 95 1018.4
20260903155805 76 157 1.0 7.0 0.00 0.43 0.10 94 1018.2
20260903151305 77 210 2.0 3.0 0.00 0.43 0.10 94 1018.1
20260903150805 77 262 2.0 7.0 0.00 0.43 0.10 95 1018.0
20260903145306 77 229 1.0 5.0 0.00 0.43 0.10 96 1017.7
20260903144806 76 211 2.0 5.0 0.00 0.43 0.10 96 1017.7
20260903143804 76 223 2.0 6.0 0.00 0.43 0.10 98 1017.7
20260903143304 75 215 1.0 6.0 0.00 0.43 0.10 97 1017.8
20260903142306 75 246 2.0 3.0 0.00 0.43 0.10 98 1017.6
20260903141305 75 149 2.0 7.0 0.00 0.43 0.10 98 1017.2
20260903140804 75 154 2.0 8.0 0.00 0.43 0.10 98 1017.3
20260903140304 75 218 2.0 8.0 0.00 0.43 0.10 98 1017.5
20260903134305 74 138 2.0 9.0 0.00 0.43 0.10 98 1016.7
20260903132306 74 164 3.0 8.0 0.00 0.43 0.10 99 1017.2
20260903131805 74 146 3.0 8.0 0.00 0.43 0.10 99 1017.3
20260903130804 74 164 3.0 10.0 0.00 0.43 0.10 99 1017.8
20260903123805 72 150 4.0 7.0 0.00 0.43 0.10 99 1018.2
20260903122804 72 169 3.0 9.0 0.00 0.43 0.10 99 1018.2
20260903122306 72 167 4.0 9.0 0.00 0.43 0.10 99 1017.8
20260903121306 72 157 3.0 6.0 0.00 0.43 0.10 99 1018.2
20260903120805 72 146 2.0 5.0 0.01 0.43 0.10 99 1018.5
20260903115805 72 138 1.0 3.0 0.02 0.43 0.10 99 1019.1
20260903115306 72 13 0.0 2.0 0.02 0.43 0.10 99 1019.2
20260903114805 72 13 0.0 2.0 0.02 0.43 0.10 99 1019.3
20260903114304 72 13 0.0 3.0 0.02 0.43 0.10 99 1019.3
20260903113805 72 13 2.0 3.0 0.02 0.43 0.10 99 1019.4
20260903113306 72 355 1.0 2.0 0.02 0.43 0.10 99 1019.6
20260903112804 72 355 1.0 2.0 0.03 0.43 0.10 99 1019.6
20260903112305 72 355 1.0 2.0 0.03 0.43 0.10 99 1019.6
20260903110804 72 182 3.0 8.0 0.02 0.42 0.09 99 1019.5
20260903110306 73 9 1.0 3.0 0.01 0.41 0.08 99 1019.9
20260903105306 73 21 2.0 3.0 0.01 0.41 0.08 99 1018.9
20260903103805 73 76 2.0 5.0 0.02 0.41 0.08 99 1018.8
20260903103305 73 76 3.0 6.0 0.02 0.41 0.08 99 1018.6
20260903102306 73 11 1.0 6.0 0.01 0.40 0.07 99 1018.5